Flag Weather past 2 weeks in Waterloo, Ontario, Canada

Now
43 °F

Mostly cloudy.


Feels Like: 38 °F
Forecast: 38 / 43 °F
Wind: 8 mph from South

Location: Waterloo Well

Current Time: Nov 23, 2014 at 11:05:18 AM

Latest Report: Nov 23, 2014 at 10:03 AM


Visibility: 7 mi

Pressure: 29.99 "Hg

Humidity: 93%

Dew point: 41 °F

Location of WaterlooLocation

Historic Weather in Waterloo — Graph

°F

Waterloo temperature yesterday

Maximum temperature yesterday: 41 °F (at 10:51 PM)
Minimum temperature yesterday: 14 °F (at 12:00 AM)
Average temperature yesterday: 33 °F

Past Weeks' High & Low Weather Summary

 TemperatureHumidityPressure
High61 °F (Nov 11, 1:00 PM)100% (Nov 8, 6:00 PM)30.47 "Hg (Nov 8, 6:00 PM)
Low9 °F (Nov 21, 7:00 AM)48% (Nov 11, 1:00 PM)29.55 "Hg (Nov 17, 1:48 PM)
Average29 °F82%29.97 "Hg
* Reported Nov 8 10:00 AM — Nov 23 10:03 AM, Waterloo, Weather by CustomWeather, © 2014

Note: Actual official high and low records may vary slightly from our data, if they occured in-between our weather recording intervals... More about our weather records

Advertising

Waterloo weather history for previous 24 hours

 ConditionsComfort  
Time TempWeatherWind HumidityBarometerVisibility
10:03 AM
Nov 23
43 °FMostly cloudy.8 mph93%29.99 "Hg7 mi
9:00 AM43 °FOvercast.8 mph87%29.99 "Hg9 mi
8:00 AM41 °FOvercast.7 mph93%30.00 "Hg9 mi
7:00 AM41 °FOvercast.6 mph93%29.98 "Hg8 mi
6:58 AM41 °FOvercast.7 mph93%29.98 "Hg8 mi
6:00 AM41 °FMostly cloudy.7 mph93%29.97 "Hg9 mi
5:00 AM41 °FMostly cloudy.7 mph93%29.97 "Hg8 mi
4:00 AM41 °FFog.9 mph93%29.96 "Hg5 mi
3:03 AM41 °FFog.9 mph93%29.96 "Hg5 mi
2:00 AM41 °FFog.12 mph93%29.96 "Hg4 mi
1:01 AM41 °FFog.14 mph100%29.96 "Hg3 mi
12:00 AM41 °FLight rain. Fog.13 mph93%29.95 "Hg1 mi
11:00 PM
Nov 22
41 °FLight rain. Fog.13 mph93%29.96 "Hg2 mi
10:51 PM41 °FLight rain. Fog.14 mph93%29.95 "Hg2 mi
10:02 PM39 °FFog.12 mph100%29.95 "Hg2 mi
9:04 PM39 °FLight rain. Fog.10 mph100%29.95 "Hg2 mi
9:00 PM39 °FLight rain. Fog.12 mph100%29.95 "Hg2 mi
8:00 PM39 °FLight rain. Fog.10 mph93%29.96 "Hg2 mi
7:59 PM39 °FLight rain. Fog.12 mph93%29.96 "Hg2 mi
7:00 PM37 °FFog.10 mph93%29.96 "Hg2 mi
6:03 PM37 °FFog.13 mph93%29.96 "Hg2 mi
5:00 PM37 °FLight rain. Fog.14 mph93%29.95 "Hg3 mi
4:00 PM37 °FLight rain. Fog.15 mph93%29.96 "Hg2 mi
3:58 PM37 °FLight rain. Fog.16 mph93%29.96 "Hg2 mi
3:00 PM36 °FLight rain. Fog.15 mph100%29.98 "Hg2 mi
2:57 PM36 °FLight rain. Fog.14 mph100%29.98 "Hg2 mi
2:00 PM36 °FLight rain. Fog.17 mph100%29.98 "Hg3 mi
1:00 PM36 °FFog.17 mph93%30.00 "Hg3 mi
12:00 PM36 °FLight rain. Low clouds.17 mph93%30.03 "Hg7 mi
11:55 AM36 °FLight rain. Fog.16 mph93%30.04 "Hg6 mi
11:00 AM34 °FFog.14 mph93%30.07 "Hg4 mi
Weather by CustomWeather, © 2014

See weather overviewHow to use our weather pages